Wind_Speed
21 22 23 22 22 22 23 24 24 22 20 19 18 17 16 16 17 18 14 10 7 7 7 8 8 8 7 8 9 9 8 8 8 8 8 8 9 10 10 11 11 11 10 9 8 9 10 10 10 9 9 8 8 7 6 5 4 4 4 4 4 4 4 3 3 4 6 5 4 4 3 3 4 4 5 5 6 6 5 5 5 5 6 7 8
23 23 23 24 24 23 23 23 23 22 22 21 20 19 18 18 19 18 14 10 7 8 8 8 8 8 8 8 8 9 9 9 9 9 9 9 9 9 10 11 11 11 11 10 9 8 9 10 10 9 8 8 7 7 6 6 6 5 3 3 4 4 4 5 5 6 7 7 6 5 5 5 5 6 7 7 7 7 7 7 7 8 9 11 11
23 24 24 25 26 25 23 22 22 22 23 22 21 20 21 20 19 18 15 11 8 8 8 8 8 7 8 8 8 8 8 9 9 8 8 8 8 8 7 8 8 9 9 9 8 7 6 7 7 6 6 5 4 4 4 5 5 5 4 3 4 6 6 7 6 7 7 7 7 7 7 7 7 7 7 8 8 8 9 9 9 10 12 14 15
23 25 25 25 26 26 25 23 23 23 23 23 23 23 23 22 21 19 15 12 10 10 10 10 8 7 7 8 8 8 8 7 7 7 6 6 6 6 6 5 6 6 6 6 5 5 4 4 3 3 2 2 2 1 2 2 2 3 3 3 4 5 7 8 8 8 8 8 8 9 8 8 8 8 8 9 9 10 11 12 13 13 14 16 17
22 24 25 25 26 27 26 25 24 24 25 25 25 24 25 24 22 20 16 12 12 12 12 12 10 8 8 8 8 8 8 7 7 6 6 5 5 5 4 3 3 3 2 3 2 2 2 2 1 2 2 3 3 3 4 4 4 4 4 5 5 7 8 9 9 9 9 10 11 11 11 11 10 10 10 11 12 13 14 15 16 17 17 18 18
22 23 25 26 27 28 28 27 26 26 27 27 26 26 26 26 24 22 18 14 14 14 14 14 13 11 10 9 9 9 9 8 8 7 6 5 5 4 3 3 3 3 2 2 3 3 4 4 5 5 6 6 7 7 7 7 8 8 9 9 9 9 10 11 11 11 11 12 13 13 13 13 13 12 13 13 14 15 16 17 18 18 19 19 19
22 24 25 27 28 28 28 28 28 29 30 30 29 28 27 28 27 25 21 17 16 17 17 16 15 13 12 10 9 9 9 9 9 8 7 7 6 6 5 5 6 6 5 6 6 7 7 8 9 9 10 10 10 11 11 12 12 12 13 13 13 13 13 13 13 13 14 14 14 14 15 16 16 15 15 16 16 17 18 19 19 20 21 21 21
19 22 25 29 30 30 31 30 30 33 33 32 32 31 31 31 30 29 26 22 18 19 20 18 16 15 14 12 10 10 10 9 9 9 9 8 8 7 7 8 8 9 9 9 10 10 11 11 12 12 12 12 12 13 14 15 16 16 16 16 16 16 15 15 15 16 16 16 17 17 18 18 18 18 18 18 18 19 20 21 21 22 23 23 23
15 18 23 28 29 31 34 34 34 35 34 32 32 33 34 34 34 35 31 24 20 22 23 21 18 16 15 14 12 11 11 11 11 10 10 9 10 10 10 11 12 12 12 12 12 13 14 14 14 14 14 14 14 15 16 17 17 17 18 17 17 17 17 17 17 17 17 17 18 19 20 20 21 20 20 19 20 20 21 22 22 22 23 24 24
12 14 18 22 26 29 34 36 36 35 35 34 33 33 36 37 37 37 32 25 22 25 24 22 20 17 16 16 15 14 13 13 13 13 13 13 13 14 14 14 15 15 14 14 14 15 16 17 17 16 16 16 16 18 19 19 19 19 19 19 19 19 19 19 19 19 19 20 20 21 21 21 22 22 22 21 21 21 21 22 22 22 23 23 24
11 11 12 15 20 23 26 29 30 31 32 31 28 29 34 38 38 36 31 26 25 27 25 24 21 19 18 18 17 16 16 16 16 15 15 16 16 17 17 17 17 16 16 16 16 17 18 19 19 19 18 18 18 20 21 21 21 20 21 21 21 21 20 20 21 21 21 22 22 23 23 23 23 24 23 23 22 22 22 22 22 23 23 24 25
7 8 8 10 13 15 17 19 21 23 25 22 19 21 25 30 33 31 29 27 28 28 26 24 22 21 20 19 19 18 18 18 19 18 19 20 20 20 20 19 19 18 17 16 17 18 19 19 20 20 20 20 21 21 20 20 20 21 21 22 22 22 23 23 23 24 24 24 25 25 25 25 25 25 24 24 24 23 23 23 23 24 24 25 26
4 4 5 7 8 8 10 12 12 14 16 14 14 14 15 19 23 25 26 28 29 29 26 24 23 23 23 22 22 22 21 21 21 22 23 23 23 22 22 22 21 20 18 17 17 19 19 19 19 20 21 22 22 20 20 20 20 21 22 23 24 25 25 26 26 26 26 27 27 27 27 27 27 26 26 26 25 24 24 24 24 25 26 26 26
6 5 5 5 5 5 6 7 8 10 12 11 12 13 14 16 19 22 25 27 28 27 26 24 23 24 25 26 25 24 25 25 25 25 26 26 26 25 25 24 24 23 21 19 18 18 20 20 20 21 21 22 21 21 21 21 22 22 23 24 25 27 28 28 28 29 29 29 29 28 27 28 29 29 29 28 27 26 25 25 26 26 27 27 27
6 7 7 6 5 4 4 5 6 8 10 10 11 13 14 15 16 18 21 24 25 25 25 25 24 25 26 27 25 25 26 26 26 27 28 28 28 27 27 27 26 25 23 21 20 21 22 23 23 23 22 22 22 22 22 23 23 24 25 25 26 27 29 29 30 31 31 30 30 30 29 29 30 30 31 31 31 29 27 26 26 26 26 27 27
5 7 7 7 6 5 5 4 5 7 8 9 10 12 14 15 16 18 20 22 23 24 24 25 25 26 26 26 25 26 27 26 27 28 29 29 28 28 28 29 28 26 25 24 24 24 24 25 25 25 24 23 23 23 23 25 26 26 26 27 28 28 29 30 30 32 32 31 31 32 31 31 31 31 32 32 31 28 26 25 25 26 26 27 28
5 6 6 6 6 7 6 5 5 7 8 9 10 12 14 16 17 18 20 21 23 23 24 26 27 26 26 27 26 26 26 26 27 29 29 28 27 27 27 28 28 27 26 26 26 25 24 26 26 25 24 24 24 24 25 26 27 27 27 28 28 29 30 31 31 32 32 32 32 32 31 32 32 32 31 30 28 26 24 25 25 26 27 27 28
4 4 4 4 5 5 5 5 6 7 8 10 11 11 12 14 16 18 19 21 23 24 24 27 28 27 28 28 27 25 24 24 25 26 27 27 27 28 28 29 29 28 27 27 27 26 26 27 26 26 25 25 25 26 27 27 28 28 28 29 30 30 31 32 33 34 34 32 32 32 32 32 32 31 30 29 27 26 25 25 25 26 27 28 29
4 5 4 5 4 4 4 5 6 7 9 10 11 12 13 14 16 17 18 20 22 24 25 27 26 25 26 26 24 23 24 23 21 23 25 26 26 27 28 30 30 29 28 28 28 28 28 27 27 27 26 26 27 27 28 29 30 29 30 31 31 31 31 33 35 36 34 32 31 32 32 31 31 30 28 27 27 26 25 26 26 27 27 28 30
5 5 4 5 5 5 6 7 8 8 9 10 12 13 15 17 19 20 21 22 23 24 25 26 25 23 24 23 22 23 25 25 23 23 25 27 27 27 27 28 28 29 29 30 29 29 29 28 28 28 29 29 29 30 31 31 32 32 32 32 32 32 33 35 35 34 32 32 32 33 32 29 28 28 27 26 26 26 26 27 27 28 29 30 32
5 5 6 6 7 7 8 9 10 11 11 12 13 14 15 17 19 20 21 23 24 24 24 24 24 23 22 22 22 23 24 25 25 24 25 27 28 28 28 28 28 29 29 30 29 29 29 29 29 30 32 33 33 33 33 33 33 34 33 33 33 34 35 36 35 34 34 34 34 32 30 28 28 27 27 27 27 27 28 28 29 30 31 32 34
9 10 10 10 10 10 11 11 12 13 13 14 15 16 17 18 19 19 19 20 20 20 21 21 22 22 22 22 22 23 24 25 25 25 26 26 27 29 29 30 31 31 32 31 31 31 31 31 32 33 34 34 34 34 34 34 35 35 35 35 36 36 38 39 39 37 36 35 34 32 30 29 28 28 28 28 28 29 29 30 31 32 33 34 36
14 15 15 14 14 14 14 15 15 16 16 17 17 18 20 21 23 23 22 22 22 21 21 21 22 23 24 24 25 26 27 27 28 28 29 29 29 30 31 31 32 33 34 34 34 34 34 33 33 33 34 33 33 33 34 35 36 36 37 37 38 38 39 40 39 37 36 35 34 32 30 29 29 29 29 30 30 31 32 32 32 34 35 36 38
17 17 18 17 17 17 18 19 19 20 21 22 22 23 23 24 25 26 27 27 27 26 26 26 26 27 28 29 30 31 31 32 33 34 34 35 35 35 35 36 36 37 38 37 37 37 37 36 36 35 35 34 34 34 34 35 36 37 37 38 39 39 39 39 38 37 37 37 34 31 29 29 29 30 31 31 32 33 33 33 34 36 37 39 40
21 21 22 22 22 23 23 23 24 25 26 27 27 28 28 27 28 29 30 31 31 31 32 32 33 33 34 34 35 36 37 38 39 39 39 40 40 39 39 39 40 40 41 41 41 41 40 39 38 37 36 36 35 34 35 35 35 37 38 38 40 40 38 37 37 37 37 36 34 31 30 31 31 32 33 33 34 35 35 35 36 37 39 40 40
24 25 26 26 27 27 27 28 28 29 29 30 30 30 30 30 31 31 32 33 34 35 36 36 37 38 39 39 40 40 40 41 41 41 41 41 40 40 39 39 39 40 40 41 41 41 40 40 39 39 38 38 38 37 36 35 35 37 39 39 40 40 38 36 38 40 40 38 35 33 32 33 34 34 34 35 35 35 35 36 37 38 39 40 39
25 26 27 27 28 29 29 30 30 30 30 30 31 31 32 32 33 34 35 36 36 37 38 39 39 40 41 41 42 42 43 43 43 44 44 43 43 43 42 42 42 42 43 43 43 44 44 43 43 43 42 42 41 38 36 34 34 36 39 40 40 41 39 37 37 38 38 36 34 34 35 34 34 34 35 35 35 35 35 36 37 38 39 39 37
27 27 28 29 29 30 31 31 32 32 33 33 34 35 35 36 37 38 38 39 40 40 41 42 42 43 43 43 44 44 45 46 46 46 47 47 47 47 47 47 48 47 48 48 48 48 48 47 47 46 45 44 43 40 38 38 38 39 40 40 40 40 40 38 36 34 33 33 34 36 36 34 33 34 35 35 34 34 35 35 36 38 39 37 34
28 29 29 30 31 32 32 33 34 35 35 36 37 38 38 39 40 40 41 42 42 42 43 43 44 45 45 46 46 46 46 46 47 47 48 48 49 49 50 50 51 51 51 51 51 51 51 50 49 48 47 47 45 43 44 45 44 43 44 44 43 41 40 38 37 35 35 39 40 38 36 36 36 35 34 33 32 32 33 35 36 37 36 34 32
29 30 30 31 31 32 33 33 34 35 35 36 37 38 38 38 39 39 40 41 41 42 42 42 42 43 43 43 43 43 43 43 43 43 44 44 45 46 46 46 47 47 47 47 47 47 47 47 47 47 47 46 45 44 45 44 43 43 43 42 41 41 40 38 36 34 37 42 44 42 41 39 37 34 32 31 30 31 32 34 34 34 32 30 30
28 29 30 30 30 31 31 32 32 32 32 32 32 32 33 34 34 33 33 33 34 34 35 34 34 34 34 33 32 32 33 34 33 33 34 35 36 37 39 40 40 41 42 42 42 42 42 42 42 43 44 44 44 44 44 42 40 38 36 33 34 36 36 34 30 28 31 36 41 45 45 38 33 32 31 30 31 31 32 32 31 30 29 28 28
25 25 26 26 26 26 26 26 26 26 25 25 24 24 24 24 25 24 23 22 22 23 24 24 23 22 23 22 21 22 23 25 26 26 26 27 28 30 31 33 34 36 37 37 38 39 39 39 39 39 40 40 41 42 41 38 35 33 31 30 30 30 31 29 27 26 28 29 34 41 42 37 32 31 30 30 31 30 29 29 29 29 28 27 27
20 20 20 20 20 19 19 19 18 18 17 17 17 17 16 17 17 18 18 17 17 16 16 17 17 17 18 19 19 19 20 22 24 25 26 28 29 30 31 33 34 36 37 37 38 38 38 38 38 38 38 37 38 39 39 37 33 31 29 28 27 27 28 28 26 25 26 27 30 35 38 36 32 30 29 30 31 29 28 28 28 28 27 26 27
15 15 15 15 15 14 14 13 13 12 12 12 12 13 13 13 13 14 14 15 15 15 14 14 14 16 16 18 19 20 22 23 25 26 27 29 30 31 32 33 34 35 36 37 37 37 37 37 36 35 35 35 35 36 37 36 35 33 31 31 30 27 25 24 23 22 23 26 28 31 33 32 30 30 31 31 29 27 26 27 27 27 26 26 27
12 12 12 12 12 12 11 11 10 10 10 10 10 10 10 11 11 11 11 12 13 14 14 15 15 16 18 19 20 21 22 23 24 24 25 25 27 28 30 31 32 32 31 31 31 31 31 31 31 31 31 31 32 32 33 34 33 31 31 31 29 24 21 20 21 21 20 20 22 24 26 27 30 31 30 28 25 24 25 26 26 26 25 25 26
11 11 11 11 11 11 10 10 10 10 9 9 9 9 9 9 10 10 11 11 12 13 15 16 17 18 18 19 19 19 19 19 19 19 19 18 19 20 21 22 24 24 23 22 21 21 22 23 24 26 26 26 27 28 29 30 29 27 25 25 24 22 20 19 20 19 17 16 17 18 20 24 27 28 26 24 23 23 24 25 25 24 24 25 25
12 12 11 11 10 10 10 9 9 9 10 9 9 9 9 9 9 10 10 11 12 13 14 14 14 15 14 14 14 14 14 14 13 13 14 15 15 16 17 17 16 15 14 13 13 14 16 17 19 20 22 23 23 23 24 24 24 22 20 19 20 20 19 18 17 18 18 17 17 18 19 22 25 25 24 23 23 23 23 23 23 24 24 24 24
12 11 10 9 9 8 8 8 8 9 9 9 9 9 9 8 8 8 8 9 10 12 12 11 10 9 9 10 10 10 10 11 11 12 14 15 16 16 15 14 13 11 10 10 11 12 14 15 16 16 17 18 19 19 19 20 20 19 17 18 20 21 20 18 17 17 18 19 19 20 21 23 26 27 25 23 22 22 22 22 22 23 23 23 22
10 9 8 8 7 7 6 7 7 8 8 8 8 8 7 6 5 5 6 8 8 9 8 8 8 8 8 8 9 10 10 11 12 12 13 14 15 15 14 13 11 10 9 9 10 11 12 12 13 13 13 15 17 18 19 20 19 18 18 19 22 23 22 21 21 20 21 21 22 22 23 25 27 28 25 22 21 22 21 21 20 21 21 20 20
8 7 7 7 7 6 6 6 6 6 6 5 5 5 4 3 4 5 6 7 7 7 7 7 8 8 8 9 10 11 12 12 12 12 12 13 14 14 14 14 12 10 9 8 9 9 10 10 10 9 9 11 13 15 18 20 21 20 20 21 22 21 20 21 23 23 22 22 23 24 25 25 27 27 25 23 21 20 20 19 19 19 18 18 17
6 6 7 7 7 6 6 5 5 5 3 2 2 2 2 2 4 5 6 6 7 7 6 6 7 7 8 9 11 12 12 12 12 12 12 13 13 13 14 13 12 11 9 8 8 9 10 11 11 10 10 10 10 12 14 16 18 18 19 20 21 21 21 23 24 25 24 24 25 26 27 27 27 27 26 24 21 19 17 17 17 17 17 15 15
4 5 6 6 6 4 3 3 2 2 2 1 0 0 1 3 4 5 6 7 7 7 6 6 6 7 8 9 10 11 11 12 12 13 13 12 12 12 12 13 12 11 10 9 9 10 11 12 12 12 12 11 10 10 10 12 14 15 16 16 17 19 21 23 24 24 25 25 26 27 28 28 28 26 25 24 20 17 15 14 14 15 15 15 14
3 4 5 7 6 5 4 3 2 2 3 3 2 1 2 2 4 5 6 7 7 7 7 7 8 8 9 9 9 10 10 11 12 12 13 12 12 12 11 11 11 10 10 9 9 9 8 6 6 7 6 6 5 4 4 4 6 9 10 11 13 15 19 21 21 21 22 22 23 24 25 24 23 22 21 20 18 15 13 12 12 13 14 14 14
1 3 5 7 8 8 7 6 4 4 4 4 4 3 3 3 4 5 6 6 7 7 7 8 8 9 9 9 10 10 11 11 12 12 12 13 12 12 11 10 9 8 7 6 6 5 3 2 4 6 6 6 6 6 6 5 3 1 3 5 7 9 12 14 15 15 16 17 18 18 18 17 15 15 15 15 14 12 11 10 11 12 13 13 14
2 1 3 4 6 8 8 8 7 6 6 6 6 6 6 6 6 6 6 7 7 8 8 8 9 9 10 11 11 12 12 12 13 13 14 14 14 13 12 11 9 8 5 4 3 3 1 3 4 5 6 7 8 8 7 6 4 2 0 2 3 5 6 7 8 9 10 10 11 11 11 11 11 11 11 11 10 9 9 9 10 11 12 12 13
3 2 1 1 3 5 6 6 7 8 9 9 9 9 9 9 9 8 8 8 8 8 9 9 10 10 11 11 12 12 13 13 14 14 14 14 15 14 13 12 9 7 4 3 3 3 3 2 2 3 4 5 6 7 7 6 4 2 2 4 5 6 7 7 8 8 8 8 8 8 8 8 8 9 9 9 8 8 8 9 9 10 11 12 12
5 4 3 2 1 1 2 3 4 6 7 8 8 9 9 9 9 9 9 9 9 9 9 10 10 11 12 12 13 13 14 14 15 15 14 14 13 14 13 10 7 4 3 2 3 3 2 1 1 2 2 3 4 5 7 7 6 4 2 3 4 5 6 6 6 6 6 6 6 6 6 7 7 7 8 8 7 8 8 8 8 9 10 11 11
7 6 5 5 5 3 2 1 2 3 5 6 7 9 9 10 10 11 11 11 11 11 11 11 11 12 12 13 13 13 13 14 14 14 14 13 12 12 11 9 6 4 2 1 1 1 2 3 4 5 5 6 6 8 9 10 8 6 4 4 4 4 4 5 5 5 4 4 4 4 5 5 5 6 7 7 8 8 8 8 8 9 9 10 10
9 8 7 7 7 5 4 3 3 3 5 7 8 9 11 11 12 12 12 12 12 12 12 12 13 13 13 13 13 13 12 12 13 13 13 13 12 12 12 10 9 7 6 6 6 6 7 7 8 10 10 11 12 13 13 11 9 7 6 6 6 7 6 6 5 5 5 4 4 4 4 5 5 6 7 8 8 7 7 7 7 8 8 9 10
11 10 9 9 8 6 5 5 5 5 6 8 9 10 11 11 11 11 11 11 11 12 12 12 13 14 14 15 15 15 16 16 16 15 15 15 15 14 14 14 14 13 13 12 11 11 11 11 12 12 13 13 13 13 11 9 7 6 6 6 7 7 7 6 6 5 5 5 5 4 5 5 5 6 7 7 7 7 6 6 7 8 9 9 10
12 11 10 9 8 7 7 7 7 7 7 8 8 9 9 9 9 9 9 9 10 10 11 12 13 14 14 15 16 17 17 17 17 17 16 16 15 15 15 15 15 14 14 14 13 11 10 10 10 10 9 9 8 8 7 7 6 6 6 6 6 6 5 5 5 5 5 5 4 4 4 4 5 5 6 7 7 6 6 6 7 8 9 10 10
Wind_Direction
198 197 196 198 197 197 199 200 201 204 209 214 220 228 234 238 246 256 268 280 260 234 243 252 249 241 221 205 197 193 188 181 177 172 164 156 147 138 131 126 123 121 121 123 124 127 128 126 124 128 131 134 143 153 156 153 164 204 240 264 270 269 274 270 250 237 235 229 217 209 213 227 232 226 215 208 207 210 213 221 238 255 266 273 278
197 200 202 203 203 202 202 203 205 210 213 217 221 227 232 236 244 253 264 274 254 231 235 238 238 235 218 202 194 185 179 177 172 167 164 156 146 139 131 127 125 121 120 119 119 120 120 120 121 123 126 130 137 143 142 139 142 159 194 232 234 236 254 257 243 234 232 228 217 204 199 202 212 217 214 213 216 222 229 238 250 263 273 278 280
198 202 206 206 206 207 207 208 212 216 218 221 223 226 229 233 240 248 255 267 254 229 229 231 227 227 215 201 194 189 183 181 176 170 166 157 147 140 133 131 129 126 126 125 123 121 118 118 119 119 121 125 132 139 141 144 150 153 158 182 207 221 231 236 239 239 239 239 233 224 218 215 219 224 227 229 234 239 245 253 260 269 277 282 284
202 205 208 207 208 210 211 212 216 218 220 223 224 225 227 229 234 238 243 256 250 227 224 228 222 221 218 205 197 196 195 192 186 179 172 162 154 151 143 137 133 128 129 128 124 123 120 118 120 124 132 143 163 193 202 203 203 196 187 191 212 230 234 235 242 250 255 256 253 250 248 245 246 251 254 257 259 263 266 269 271 275 279 282 285
207 209 209 207 210 213 214 216 219 221 221 223 225 226 227 227 229 230 231 241 242 227 225 231 223 213 216 210 201 202 204 204 200 193 186 177 173 171 166 156 148 138 137 135 135 141 153 170 197 216 230 236 242 254 268 277 280 278 266 251 244 246 248 246 246 249 251 251 250 253 256 256 256 259 263 265 267 269 270 272 274 277 279 281 282
209 209 207 208 213 215 217 220 222 224 223 224 226 227 227 227 227 226 226 233 235 225 224 233 225 209 208 208 204 206 211 213 213 211 209 204 202 206 211 217 225 226 221 227 239 238 235 238 245 251 256 261 265 271 277 279 280 280 277 272 264 257 255 254 253 251 249 248 248 252 258 261 261 262 265 267 269 271 272 272 273 273 274 274 273
216 218 214 214 216 217 220 223 225 228 229 229 229 228 227 227 226 225 225 229 232 221 220 231 229 212 206 207 208 213 219 223 225 226 226 225 224 226 229 234 243 246 246 249 253 254 255 256 259 263 267 271 274 277 279 278 277 276 275 273 270 264 259 257 257 258 258 258 259 262 266 270 271 271 271 270 273 275 276 275 272 270 269 268 267
223 230 225 220 220 220 222 224 227 230 233 234 232 228 227 225 222 220 222 228 228 217 216 228 228 214 207 208 211 217 223 230 233 235 235 236 236 238 239 243 249 254 256 256 256 256 257 260 263 266 270 273 276 279 281 281 280 279 277 274 271 268 264 260 258 258 259 262 266 269 271 274 275 275 274 274 277 278 276 274 271 268 267 267 267
216 227 227 223 224 226 225 225 226 228 231 234 231 229 229 226 221 221 228 234 228 214 215 224 221 209 209 215 218 221 226 232 236 238 240 239 240 241 242 245 249 253 255 255 257 258 259 260 261 264 266 269 274 277 279 280 279 277 276 275 275 273 271 267 264 262 260 261 264 267 269 271 273 273 272 272 274 274 274 273 270 266 264 264 266
208 223 229 227 228 231 230 229 229 228 230 231 229 229 230 231 230 231 236 241 228 212 215 223 219 210 213 219 222 225 229 235 239 241 244 244 244 244 245 247 249 252 254 255 259 261 260 258 258 259 262 267 276 282 284 283 281 278 277 279 281 281 279 278 277 275 273 269 267 267 267 269 270 270 269 269 269 268 268 269 267 265 264 264 267
209 221 232 227 227 233 236 236 236 236 234 234 234 235 234 235 238 239 241 241 224 210 213 221 218 216 219 222 225 229 233 237 241 245 248 250 251 252 253 255 256 257 259 262 265 267 266 263 259 259 263 270 280 286 286 284 281 278 279 281 283 283 281 281 281 281 280 277 273 270 268 268 269 269 268 267 266 264 264 264 263 264 265 267 270
203 214 220 217 221 231 237 238 239 241 241 240 243 243 235 232 235 236 234 227 213 206 214 220 219 221 224 227 231 233 236 241 244 247 249 251 253 255 258 260 261 261 262 263 265 267 267 265 262 261 264 271 277 280 281 280 278 277 277 279 281 280 279 278 278 279 279 278 275 272 269 267 266 267 267 267 266 266 265 264 264 265 267 269 272
170 183 194 203 211 223 226 222 220 224 230 232 230 223 212 210 212 211 209 206 203 207 216 221 224 226 229 234 238 236 237 241 246 248 250 251 253 255 257 259 259 259 258 258 260 263 265 262 259 260 263 267 271 272 271 272 272 272 274 276 278 279 278 277 276 276 277 276 275 274 271 267 265 265 265 265 265 267 268 268 268 269 271 274 278
144 147 155 171 186 197 204 203 196 195 197 200 202 198 193 195 196 194 196 200 204 211 217 222 227 230 234 242 244 238 236 238 243 248 251 254 255 256 257 257 258 259 259 260 261 264 264 262 260 262 263 265 266 267 268 269 269 269 270 272 273 274 274 274 274 274 275 275 276 275 271 268 265 264 264 263 264 265 267 268 270 272 275 279 283
143 148 153 160 171 180 185 194 197 195 196 199 200 198 201 206 204 201 203 207 212 218 222 225 227 230 236 243 245 242 240 239 241 246 250 254 256 257 257 257 257 258 261 263 263 261 260 260 261 264 266 266 266 267 270 272 272 273 273 272 271 271 270 270 270 272 273 275 276 273 270 269 269 267 266 267 266 264 264 267 270 273 276 279 283
163 164 168 175 180 185 189 191 193 194 199 208 212 212 214 216 213 210 213 218 223 227 230 231 232 233 237 241 244 245 244 243 244 245 248 251 254 256 258 259 260 260 262 264 263 260 259 260 262 265 269 270 271 271 272 273 274 276 276 275 273 271 269 268 269 270 272 273 271 268 267 267 267 267 268 271 271 268 266 268 270 272 275 278 281
184 182 184 190 193 192 192 196 200 198 199 208 216 220 222 221 219 220 222 226 230 233 235 237 237 238 240 243 246 249 250 250 250 250 251 253 255 257 258 260 262 262 262 262 261 259 260 262 263 265 267 269 270 270 271 272 273 275 276 275 274 271 270 269 269 270 272 273 271 269 266 264 263 263 265 269 272 270 268 268 269 271 274 277 281
180 187 193 201 207 204 197 198 207 210 213 216 218 221 225 223 223 226 228 230 233 236 240 243 242 241 242 245 248 253 257 257 256 255 256 257 258 259 258 258 260 261 260 260 260 260 260 262 263 264 265 265 266 267 268 269 271 273 275 274 273 271 269 268 268 269 269 270 270 270 267 264 262 261 262 265 268 268 266 267 268 271 274 277 282
162 172 177 185 197 212 218 221 225 227 230 232 231 234 236 234 232 233 233 234 236 238 242 247 249 248 249 251 250 253 259 262 258 256 257 260 260 260 259 258 259 260 260 259 259 260 261 262 264 264 264 264 264 266 269 270 271 273 274 273 272 271 269 267 266 267 266 265 266 266 265 262 260 259 259 262 265 265 264 266 268 271 275 279 284
172 180 190 200 209 220 228 233 236 239 243 245 246 246 245 244 243 241 237 235 236 238 241 247 251 251 253 255 255 254 257 258 255 253 254 257 260 262 262 262 261 261 262 262 262 263 265 266 266 266 266 266 267 269 271 272 273 273 273 274 274 272 268 266 267 268 267 266 265 264 261 258 256 256 258 260 262 262 263 265 269 273 278 282 285
215 224 233 238 241 243 244 245 247 249 251 252 253 255 256 255 253 249 244 239 236 235 237 240 245 249 252 255 255 254 254 255 255 254 253 255 258 261 263 264 263 262 263 264 265 266 268 268 268 268 270 271 273 273 274 274 274 274 274 274 274 271 267 266 266 266 265 265 263 260 257 256 257 257 258 259 260 261 264 267 271 275 279 283 286
247 254 258 258 258 259 261 263 263 262 262 260 260 262 264 263 261 259 257 252 247 244 243 243 246 249 253 255 256 257 257 257 259 260 261 261 261 262 263 264 264 264 264 264 265 267 268 269 269 271 273 275 276 277 277 277 277 276 275 273 271 269 267 264 261 261 263 262 260 256 254 255 256 256 257 258 260 262 266 270 273 277 280 284 289
260 264 265 264 265 267 268 269 267 265 264 262 262 263 263 263 262 262 260 258 257 256 254 253 251 251 252 254 255 256 258 259 260 263 265 266 265 264 263 263 263 264 264 265 266 268 268 268 269 270 272 274 276 278 279 278 278 278 276 273 271 269 268 264 260 259 261 261 257 254 253 253 253 254 255 258 260 263 267 271 274 279 283 286 289
259 259 259 258 259 263 265 267 267 267 266 264 263 262 261 259 258 258 257 257 257 258 257 256 255 253 253 255 257 259 261 262 264 265 267 268 268 268 267 266 265 265 265 265 266 267 268 269 270 271 272 273 275 277 278 278 279 278 276 275 273 270 267 265 261 257 257 257 255 252 252 252 252 254 255 257 261 264 268 273 277 281 283 285 288
254 255 256 256 259 261 262 263 264 266 268 268 267 266 264 261 257 255 255 255 256 257 257 257 257 256 257 259 262 264 266 267 269 270 271 272 272 272 272 271 270 269 269 268 268 268 269 270 271 272 273 274 275 275 275 275 276 276 275 274 272 269 266 265 261 254 251 251 250 249 251 251 251 253 255 258 262 266 270 274 277 280 281 284 287
260 260 261 261 263 265 266 266 267 267 268 268 267 266 266 264 263 261 259 259 259 259 259 259 259 260 260 262 264 266 268 269 271 272 272 273 273 272 272 271 271 270 270 270 270 271 271 272 273 273 275 276 275 273 272 272 273 274 274 272 272 271 270 269 265 257 249 244 243 244 247 248 249 251 255 258 262 266 270 273 276 279 281 284 286
264 265 265 265 265 266 266 267 268 268 268 267 267 266 266 265 265 265 265 265 265 265 265 265 264 264 264 265 266 267 268 269 270 271 272 273 273 273 273 273 273 273 273 273 273 274 275 275 275 276 277 276 273 270 268 269 271 273 273 272 272 271 271 272 272 265 252 244 241 241 241 243 246 248 252 257 261 265 269 273 276 280 283 285 285
265 266 266 266 266 267 267 268 268 269 269 268 268 268 268 268 268 267 267 268 268 268 269 269 269 269 268 268 268 269 269 269 270 270 271 271 272 272 273 273 273 274 274 274 274 275 275 275 275 275 275 273 272 270 268 268 269 270 269 269 269 269 269 272 275 270 254 242 240 239 238 239 244 248 251 255 260 265 270 274 278 281 283 282 283
265 266 266 267 267 268 268 269 269 269 270 270 270 270 270 270 270 270 270 270 270 270 270 271 271 271 272 271 271 271 272 272 272 272 272 272 272 272 272 272 272 272 272 272 272 272 272 272 272 272 271 270 270 270 268 269 269 267 264 264 265 267 268 270 273 271 257 245 241 241 241 241 244 247 251 256 262 267 271 275 279 280 280 281 284
267 267 268 268 269 270 270 270 270 270 270 271 272 271 271 271 272 272 272 272 272 272 273 273 274 274 274 275 275 274 274 273 273 273 272 272 272 272 271 271 270 270 270 270 270 270 270 269 268 267 267 267 267 266 267 269 271 269 264 262 261 265 270 274 277 274 264 254 249 246 243 243 244 248 253 259 264 268 272 274 276 277 279 283 286
272 272 272 272 273 274 274 273 274 274 274 275 275 276 275 275 275 275 276 277 278 278 277 278 278 278 278 278 278 278 278 277 275 274 273 273 273 273 273 273 272 272 271 272 272 271 271 270 268 267 267 266 265 265 267 270 274 274 272 271 269 270 274 277 279 278 273 267 260 252 246 245 248 251 255 260 264 268 271 273 274 278 282 284 286
276 276 276 276 277 277 277 278 278 278 279 279 279 279 280 281 281 282 282 282 283 284 284 285 285 284 284 283 282 281 281 281 282 281 279 277 276 275 275 275 275 275 274 274 274 274 273 272 270 269 268 266 265 265 267 271 274 276 277 279 278 276 274 273 275 277 276 276 269 258 250 248 251 253 255 260 264 267 270 272 275 280 283 284 286
282 282 281 281 281 281 281 281 280 280 280 280 279 280 282 284 286 287 287 286 286 285 286 288 289 289 288 287 286 284 282 282 283 283 282 282 281 280 279 277 276 276 275 274 273 273 272 271 271 269 268 266 264 264 266 269 270 271 273 275 277 276 274 274 276 277 277 277 272 261 252 249 253 255 259 263 265 267 270 274 279 282 283 284 287
287 287 286 285 284 284 283 282 280 280 280 281 281 283 284 284 285 287 289 290 289 288 288 288 289 289 288 287 287 286 285 284 284 285 286 287 287 286 285 283 281 278 276 275 273 271 270 269 269 269 268 266 264 263 264 266 267 267 270 273 275 276 276 275 276 279 281 280 273 261 252 252 257 260 261 261 262 265 271 276 280 281 282 285 289
290 290 289 289 288 286 283 281 281 282 283 284 285 287 289 289 287 286 288 290 294 297 298 297 295 294 293 292 291 290 290 290 291 292 293 293 293 292 291 289 286 282 278 276 274 273 272 271 270 269 267 266 265 264 264 265 267 268 270 270 271 273 276 274 269 268 269 269 265 257 254 257 261 261 258 257 259 265 272 276 279 281 283 288 292
300 299 297 295 293 291 289 287 286 286 286 287 289 291 292 294 295 296 296 296 298 299 299 298 298 298 298 298 298 298 300 302 304 305 307 309 310 309 307 302 295 287 281 280 281 280 279 277 273 268 264 262 262 262 262 263 266 268 270 271 270 269 268 265 261 255 250 251 256 257 258 262 263 259 256 256 261 268 274 277 279 282 286 290 292
308 306 303 300 297 294 292 291 289 286 284 285 287 289 292 296 299 300 299 299 299 299 300 300 302 303 304 306 309 313 317 321 325 329 334 335 335 334 331 324 313 299 290 290 293 293 291 286 280 272 263 256 255 257 261 264 263 258 256 261 264 260 255 255 260 260 255 255 262 267 269 270 266 258 254 256 262 268 274 277 280 284 287 288 289
309 308 306 304 302 298 295 292 286 281 280 282 283 286 291 295 297 298 301 305 307 307 308 311 315 320 323 327 332 338 345 350 354 354 352 348 345 343 341 336 330 321 310 304 302 301 299 295 289 280 268 257 251 249 252 258 258 249 240 242 249 251 252 256 261 262 261 264 269 273 275 274 267 259 255 256 260 266 272 276 280 283 285 286 287
312 311 310 310 308 305 303 299 290 282 279 279 280 283 287 291 298 310 320 325 325 326 329 334 341 347 351 354 359 5 10 9 3 357 352 348 347 347 347 345 341 335 328 320 314 310 307 303 299 292 280 268 258 250 247 248 248 245 240 240 244 248 253 260 263 262 264 269 271 270 271 271 267 262 258 258 260 266 271 275 277 279 282 285 288
318 319 319 317 314 310 306 301 292 282 275 272 273 279 287 300 324 340 345 345 349 356 2 5 6 7 7 8 10 12 12 7 0 354 349 347 347 348 348 347 346 343 342 338 331 324 320 318 314 305 293 280 268 258 251 249 248 247 246 248 250 251 252 257 261 261 262 264 265 264 265 268 268 265 263 261 262 265 268 272 275 277 280 284 288
329 331 331 331 327 318 310 299 282 265 254 254 266 285 314 340 352 357 0 5 11 16 18 18 16 12 7 5 5 4 1 358 354 351 347 345 345 346 346 344 344 345 346 343 341 339 336 333 328 319 308 297 285 271 259 254 252 250 248 249 252 254 256 257 259 261 262 263 264 265 266 267 269 270 268 264 260 260 263 267 272 276 279 282 285
346 348 353 359 356 347 339 322 277 229 196 178 172 11 1 358 3 10 16 20 21 19 16 13 9 2 358 355 354 353 351 350 349 349 348 346 343 341 341 341 342 342 341 340 340 337 332 329 328 326 322 317 309 295 277 260 251 249 248 247 249 253 254 251 249 250 253 256 259 261 263 264 265 266 265 263 260 258 260 264 269 275 280 281 281
14 9 17 27 30 33 40 46 71 110 111 106 96 70 40 24 23 24 26 27 24 18 14 9 4 360 357 354 351 350 348 348 348 347 347 345 339 335 337 342 342 338 337 339 337 329 323 332 350 357 356 353 349 340 317 276 248 240 238 239 243 245 244 241 241 242 243 244 247 250 253 254 255 256 257 258 256 256 260 265 269 273 277 279 279
65 26 30 40 47 50 52 55 63 77 87 92 90 81 68 52 41 32 28 25 21 16 12 8 3 359 356 354 353 354 353 352 351 348 346 344 338 333 333 337 337 337 340 343 334 320 316 36 54 51 53 55 52 49 47 46 54 130 194 211 223 231 235 240 245 246 243 241 241 241 241 243 245 247 250 251 250 252 259 266 268 271 274 276 277
151 74 42 47 55 58 59 61 68 77 84 90 91 87 80 70 59 48 38 30 23 18 15 10 5 2 359 356 356 356 355 355 354 351 347 344 339 333 328 326 328 335 348 1 357 355 52 93 69 47 46 50 51 47 42 38 37 43 77 227 237 247 253 256 259 259 256 252 249 246 243 242 242 243 246 248 248 252 258 261 263 268 271 274 277
190 177 148 47 61 68 68 70 76 82 85 87 87 85 82 76 70 63 55 47 41 32 26 21 17 15 12 9 6 2 360 358 356 354 350 345 339 335 330 325 324 330 345 9 23 36 65 85 52 28 35 45 49 44 34 23 12 349 287 259 255 259 266 267 268 268 270 270 267 263 258 251 244 241 245 246 246 248 253 257 262 267 271 274 278
213 212 222 236 227 115 87 79 81 85 87 87 87 85 82 78 72 67 61 54 47 41 34 29 26 24 23 21 18 15 10 6 3 0 356 347 337 330 325 319 319 332 2 35 54 63 72 56 338 340 4 17 15 9 3 358 352 340 310 279 263 260 264 272 274 272 270 272 272 267 261 253 249 249 252 254 255 256 257 260 265 269 272 275 280
225 227 235 242 238 220 184 150 113 95 92 91 89 86 82 78 72 67 62 55 50 44 39 35 32 30 28 26 24 21 18 15 12 9 6 1 352 342 333 323 312 304 300 294 299 318 321 320 317 315 317 322 327 330 334 333 327 318 311 309 300 291 290 292 292 289 283 275 269 264 262 264 268 270 271 272 271 269 269 270 271 270 272 276 282
229 231 238 245 242 226 201 178 155 125 108 100 93 86 81 75 69 64 58 52 48 43 39 36 34 32 31 29 28 26 23 20 18 16 13 10 7 4 360 355 348 337 326 318 311 308 312 319 323 323 322 323 325 327 330 331 327 317 310 309 309 308 304 299 296 297 295 292 291 291 289 288 290 290 288 285 281 276 273 272 270 270 273 278 284
231 232 235 237 234 218 193 169 153 137 120 106 96 87 79 73 67 61 55 50 45 41 37 34 32 30 28 26 24 22 20 18 16 15 13 10 8 7 5 2 0 356 351 343 334 326 321 321 321 320 321 321 323 326 333 341 345 340 330 321 317 312 304 296 292 293 295 297 300 303 299 296 296 294 291 286 281 276 273 272 274 276 279 282 285
231 231 227 223 216 202 180 162 151 139 123 110 100 91 83 75 68 61 54 48 43 39 35 31 29 27 25 23 21 18 17 14 12 11 10 8 6 6 3 359 355 352 349 345 338 330 324 322 321 322 325 330 336 344 353 359 360 352 340 333 328 322 310 294 284 284 287 290 293 294 291 290 290 286 282 278 276 276 278 282 284 286 288 290 292
Height
3118 3120 3121 3123 3124 3126 3127 3129 3131 3133 3134 3135 3137 3138 3139 3139 3140 3141 3142 3143 3143 3144 3144 3144 3144 3144 3144 3144 3145 3145 3146 3147 3147 3148 3148 3149 3149 3150 3150 3151 3152 3153 3153 3154 3155 3155 3156 3156 3157 3158 3159 3160 3161 3161 3162 3162 3163 3163 3163 3164 3164 3164 3165 3165 3165 3166 3166 3166 3166 3167 3167 3167 3167 3167 3168 3168 3168 3168 3168 3168 3169 3169 3169 3168 3168
3116 3118 3120 3122 3124 3125 3127 3128 3130 3132 3133 3134 3135 3137 3138 3138 3139 3140 3141 3142 3143 3144 3144 3144 3144 3144 3144 3145 3145 3146 3146 3147 3148 3148 3149 3150 3150 3150 3151 3152 3153 3153 3154 3155 3155 3156 3156 3157 3157 3158 3159 3159 3160 3161 3162 3162 3163 3163 3163 3164 3164 3164 3165 3165 3165 3165 3165 3166 3166 3166 3166 3167 3167 3167 3167 3167 3168 3168 3168 3168 3167 3167 3167 3167 3167
3115 3117 3118 3120 3122 3124 3126 3128 3130 3131 3132 3134 3135 3136 3136 3137 3138 3139 3140 3141 3142 3143 3144 3144 3144 3145 3145 3145 3146 3146 3147 3148 3148 3149 3150 3150 3151 3151 3152 3153 3153 3154 3155 3155 3156 3156 3157 3157 3157 3158 3159 3159 3160 3161 3161 3162 3163 3163 3163 3164 3164 3164 3165 3165 3165 3165 3165 3165 3165 3165 3165 3165 3166 3166 3167 3167 3167 3167 3167 3167 3167 3167 3166 3166 3166
3113 3114 3116 3118 3120 3123 3125 3126 3128 3130 3131 3132 3133 3134 3135 3136 3137 3138 3140 3141 3141 3142 3143 3144 3144 3145 3146 3146 3146 3147 3148 3148 3149 3149 3150 3150 3151 3152 3152 3153 3154 3154 3155 3156 3156 3157 3157 3157 3158 3158 3159 3159 3160 3160 3161 3161 3162 3163 3163 3163 3164 3164 3164 3164 3164 3165 3165 3165 3165 3164 3164 3165 3165 3165 3166 3166 3166 3166 3166 3166 3166 3166 3166 3166 3165
3111 3112 3114 3116 3119 3121 3123 3124 3126 3128 3130 3131 3132 3133 3134 3134 3135 3137 3138 3140 3141 3142 3143 3144 3144 3145 3146 3146 3146 3147 3147 3148 3149 3149 3150 3150 3151 3151 3152 3153 3153 3154 3155 3155 3156 3156 3157 3157 3158 3158 3158 3159 3159 3160 3160 3160 3161 3161 3162 3162 3163 3163 3164 3164 3164 3164 3164 3164 3164 3164 3164 3164 3164 3164 3164 3165 3165 3165 3165 3165 3165 3165 3164 3164 3164
3110 3111 3113 3115 3117 3119 3121 3123 3124 3126 3128 3129 3131 3132 3132 3133 3134 3135 3137 3139 3140 3141 3142 3143 3144 3145 3145 3145 3146 3146 3147 3148 3148 3149 3150 3150 3151 3151 3152 3152 3153 3154 3154 3155 3155 3156 3156 3157 3157 3157 3157 3158 3158 3158 3159 3159 3159 3160 3160 3161 3161 3162 3162 3162 3162 3163 3163 3163 3163 3163 3163 3163 3163 3163 3163 3163 3163 3163 3163 3163 3163 3163 3163 3162 3162
3109 3110 3112 3114 3115 3117 3119 3120 3122 3123 3125 3127 3129 3130 3131 3131 3132 3133 3135 3137 3139 3140 3141 3142 3143 3144 3144 3145 3145 3146 3147 3147 3148 3149 3150 3150 3150 3151 3151 3152 3152 3153 3153 3154 3154 3155 3155 3156 3156 3156 3156 3157 3157 3157 3158 3158 3158 3159 3159 3159 3159 3160 3160 3160 3161 3161 3161 3161 3161 3161 3161 3160 3161 3161 3161 3161 3161 3161 3161 3161 3161 3161 3161 3160 3160
3106 3108 3110 3111 3113 3114 3116 3117 3119 3120 3122 3124 3126 3127 3128 3128 3129 3130 3133 3135 3137 3138 3140 3141 3142 3143 3143 3143 3144 3145 3146 3147 3148 3149 3149 3150 3150 3151 3151 3151 3152 3152 3152 3153 3153 3154 3154 3155 3155 3155 3155 3156 3156 3156 3156 3157 3157 3157 3157 3157 3157 3158 3158 3158 3158 3159 3159 3159 3158 3159 3159 3158 3158 3159 3159 3159 3159 3159 3159 3158 3158 3158 3158 3158 3158
3102 3104 3105 3107 3109 3111 3111 3113 3114 3115 3118 3120 3122 3124 3125 3125 3126 3127 3130 3133 3136 3136 3138 3139 3140 3141 3142 3142 3143 3144 3145 3146 3147 3147 3148 3149 3149 3150 3150 3150 3150 3151 3151 3151 3152 3152 3153 3153 3154 3154 3154 3154 3154 3155 3155 3155 3155 3155 3155 3155 3156 3156 3156 3156 3156 3156 3156 3156 3157 3157 3156 3156 3156 3157 3157 3157 3157 3157 3156 3156 3156 3156 3155 3155 3155
3100 3102 3103 3105 3107 3108 3109 3110 3111 3112 3114 3116 3118 3121 3122 3122 3123 3125 3128 3131 3133 3134 3136 3138 3139 3140 3140 3141 3141 3142 3143 3144 3145 3146 3147 3147 3148 3148 3149 3149 3149 3149 3149 3150 3150 3151 3151 3151 3152 3152 3152 3153 3153 3153 3153 3153 3153 3154 3154 3154 3154 3154 3154 3154 3154 3154 3154 3154 3154 3154 3154 3154 3154 3154 3155 3155 3155 3155 3154 3154 3153 3153 3153 3152 3152
3099 3101 3103 3104 3105 3106 3107 3108 3109 3111 3112 3113 3116 3118 3119 3119 3120 3123 3126 3128 3131 3132 3134 3136 3137 3138 3138 3139 3140 3140 3142 3142 3143 3144 3145 3146 3146 3147 3147 3147 3148 3148 3149 3149 3149 3149 3150 3150 3150 3150 3151 3151 3151 3151 3151 3151 3151 3151 3151 3152 3152 3152 3152 3152 3152 3151 3151 3151 3151 3151 3151 3152 3152 3151 3152 3152 3152 3152 3152 3151 3151 3151 3150 3150 3149
3099 3101 3103 3103 3104 3105 3106 3107 3108 3109 3110 3112 3114 3114 3115 3116 3118 3120 3123 3126 3128 3130 3132 3134 3135 3135 3136 3137 3138 3138 3139 3140 3141 3142 3143 3143 3144 3144 3145 3145 3146 3147 3147 3148 3148 3148 3148 3148 3149 3149 3149 3149 3149 3149 3149 3149 3149 3149 3149 3149 3149 3149 3149 3149 3149 3149 3149 3149 3149 3149 3149 3149 3149 3149 3149 3149 3149 3149 3149 3149 3148 3148 3148 3147 3147
3098 3100 3102 3102 3103 3104 3104 3105 3107 3109 3109 3111 3112 3113 3113 3114 3115 3118 3120 3123 3126 3128 3130 3131 3132 3133 3134 3135 3135 3136 3137 3137 3138 3139 3140 3140 3141 3141 3142 3143 3143 3144 3144 3145 3145 3146 3146 3146 3146 3147 3147 3147 3147 3147 3147 3147 3147 3146 3146 3146 3146 3146 3146 3146 3146 3146 3146 3145 3145 3145 3146 3145 3145 3146 3146 3146 3145 3145 3145 3145 3145 3145 3144 3144 3143
3098 3100 3101 3102 3103 3104 3104 3105 3107 3108 3109 3110 3111 3112 3113 3114 3116 3118 3119 3122 3124 3126 3127 3129 3130 3132 3133 3133 3133 3134 3134 3135 3136 3137 3137 3138 3138 3139 3139 3140 3140 3141 3142 3142 3143 3144 3144 3144 3144 3144 3144 3144 3144 3144 3144 3144 3144 3144 3144 3143 3143 3143 3143 3142 3142 3142 3142 3142 3142 3142 3142 3142 3142 3142 3142 3142 3142 3142 3142 3142 3142 3142 3141 3140 3140
3098 3099 3101 3102 3103 3104 3105 3106 3107 3108 3109 3110 3111 3112 3113 3115 3117 3119 3120 3122 3123 3125 3126 3127 3129 3130 3130 3131 3131 3132 3132 3133 3134 3134 3135 3135 3136 3137 3137 3138 3138 3139 3140 3141 3141 3142 3141 3141 3141 3141 3141 3141 3141 3141 3140 3140 3140 3140 3140 3140 3140 3139 3139 3139 3139 3138 3138 3138 3138 3138 3138 3139 3139 3139 3139 3139 3139 3139 3138 3138 3138 3138 3138 3137 3137
3098 3099 3100 3101 3103 3104 3105 3106 3107 3108 3108 3109 3110 3112 3113 3114 3116 3118 3120 3121 3122 3123 3124 3125 3127 3127 3128 3128 3129 3129 3130 3131 3132 3132 3132 3133 3133 3134 3135 3135 3135 3137 3138 3139 3139 3139 3138 3138 3138 3138 3138 3138 3138 3137 3136 3136 3135 3135 3136 3135 3135 3135 3135 3135 3135 3134 3134 3135 3134 3134 3135 3135 3136 3136 3136 3136 3135 3135 3135 3135 3135 3135 3135 3134 3134
3098 3099 3100 3101 3102 3103 3104 3105 3106 3107 3108 3109 3110 3111 3112 3113 3115 3117 3118 3119 3120 3121 3122 3123 3124 3125 3125 3125 3125 3126 3127 3129 3130 3129 3129 3130 3130 3131 3132 3132 3133 3134 3135 3135 3135 3135 3135 3135 3134 3134 3134 3134 3134 3134 3133 3132 3132 3132 3132 3132 3131 3131 3131 3131 3130 3130 3129 3129 3129 3130 3131 3131 3132 3132 3132 3132 3132 3132 3132 3132 3132 3132 3131 3131 3130
3097 3098 3099 3100 3101 3102 3103 3104 3105 3106 3107 3108 3109 3110 3111 3112 3113 3114 3115 3116 3117 3118 3119 3120 3120 3122 3122 3122 3123 3124 3125 3126 3128 3127 3127 3127 3127 3127 3128 3129 3130 3131 3131 3131 3131 3131 3131 3131 3130 3130 3130 3131 3130 3130 3129 3129 3129 3129 3129 3128 3128 3128 3127 3127 3126 3126 3125 3125 3125 3125 3126 3127 3127 3127 3127 3128 3128 3129 3129 3129 3129 3128 3128 3128 3127
3097 3098 3099 3100 3100 3101 3102 3103 3104 3105 3106 3107 3108 3108 3109 3110 3111 3111 3112 3113 3114 3115 3116 3116 3117 3118 3119 3120 3121 3122 3122 3123 3125 3124 3124 3124 3124 3124 3125 3126 3127 3127 3127 3127 3127 3127 3127 3127 3127 3127 3127 3127 3127 3126 3126 3125 3125 3125 3125 3125 3125 3125 3125 3124 3123 3122 3121 3121 3121 3121 3121 3122 3123 3123 3123 3124 3125 3125 3125 3125 3125 3125 3125 3124 3124
3097 3098 3099 3099 3100 3101 3102 3102 3103 3104 3105 3106 3107 3107 3108 3108 3109 3109 3109 3110 3111 3112 3112 3113 3113 3114 3115 3116 3118 3118 3119 3119 3120 3121 3121 3121 3121 3121 3121 3122 3123 3123 3123 3123 3123 3124 3124 3124 3124 3123 3123 3123 3122 3122 3122 3122 3121 3121 3121 3121 3121 3122 3121 3120 3119 3119 3118 3118 3118 3118 3118 3118 3119 3120 3120 3121 3121 3122 3122 3122 3122 3122 3121 3121 3120
3097 3097 3098 3099 3099 3100 3101 3101 3102 3103 3104 3105 3105 3106 3107 3107 3107 3108 3108 3108 3108 3108 3108 3109 3110 3110 3111 3112 3114 3114 3115 3116 3116 3117 3118 3118 3117 3117 3117 3118 3118 3119 3119 3120 3120 3120 3121 3120 3120 3119 3119 3119 3118 3118 3118 3118 3117 3117 3117 3118 3118 3117 3116 3115 3115 3115 3114 3114 3114 3114 3115 3115 3115 3116 3117 3117 3118 3118 3118 3118 3118 3118 3117 3117 3116
3096 3097 3097 3098 3099 3099 3100 3100 3101 3101 3102 3103 3103 3104 3105 3105 3106 3106 3107 3107 3107 3107 3107 3107 3107 3108 3108 3109 3110 3111 3111 3112 3112 3113 3113 3114 3114 3114 3114 3114 3114 3114 3115 3116 3116 3116 3116 3116 3116 3116 3115 3115 3115 3115 3115 3114 3113 3113 3114 3113 3113 3112 3111 3110 3110 3110 3110 3110 3110 3110 3111 3111 3112 3112 3113 3113 3114 3114 3114 3114 3114 3113 3113 3112 3111
3096 3097 3097 3097 3098 3098 3099 3099 3100 3100 3101 3101 3102 3102 3103 3103 3104 3104 3104 3105 3105 3105 3105 3106 3106 3106 3106 3106 3106 3107 3108 3108 3109 3109 3109 3110 3110 3110 3110 3110 3110 3110 3110 3111 3111 3111 3111 3111 3111 3111 3111 3110 3110 3110 3110 3110 3109 3109 3109 3108 3108 3108 3107 3105 3104 3106 3107 3107 3107 3107 3107 3108 3108 3109 3109 3109 3110 3110 3110 3110 3110 3109 3108 3107 3106
3095 3095 3096 3096 3097 3097 3097 3097 3098 3098 3099 3099 3100 3100 3101 3101 3101 3101 3102 3102 3102 3102 3102 3103 3103 3103 3103 3103 3103 3103 3104 3104 3105 3105 3105 3105 3105 3105 3105 3105 3105 3105 3105 3105 3106 3106 3106 3106 3106 3106 3106 3106 3106 3105 3105 3105 3104 3104 3104 3104 3104 3104 3103 3101 3100 3101 3102 3102 3103 3103 3103 3104 3105 3105 3105 3105 3106 3106 3106 3105 3105 3105 3104 3103 3102
3093 3093 3094 3094 3094 3094 3095 3095 3095 3095 3096 3096 3096 3097 3097 3098 3098 3098 3099 3099 3099 3099 3099 3099 3100 3100 3100 3100 3100 3100 3100 3100 3100 3100 3100 3100 3100 3100 3100 3100 3100 3100 3100 3100 3100 3100 3100 3100 3100 3100 3100 3100 3100 3101 3100 3100 3100 3099 3099 3099 3099 3098 3098 3098 3097 3096 3097 3097 3098 3098 3099 3100 3100 3100 3101 3101 3101 3101 3101 3101 3101 3100 3100 3099 3098
3089 3090 3090 3091 3091 3091 3091 3091 3092 3092 3092 3092 3093 3093 3093 3093 3094 3094 3095 3095 3095 3095 3095 3095 3096 3096 3096 3096 3096 3096 3096 3096 3095 3095 3095 3095 3095 3095 3095 3095 3095 3095 3094 3094 3094 3094 3094 3094 3094 3094 3094 3094 3095 3095 3095 3095 3095 3094 3094 3094 3094 3093 3093 3094 3093 3091 3091 3092 3092 3093 3095 3095 3095 3096 3096 3096 3097 3097 3097 3097 3097 3096 3096 3095 3094
3086 3086 3086 3087 3087 3087 3087 3087 3087 3088 3088 3088 3089 3089 3089 3090 3090 3090 3090 3090 3090 3090 3090 3091 3091 3091 3091 3091 3091 3091 3091 3091 3091 3091 3090 3090 3090 3090 3090 3089 3089 3089 3089 3089 3088 3088 3088 3087 3087 3088 3088 3088 3088 3088 3089 3089 3089 3089 3088 3088 3088 3088 3087 3088 3088 3087 3087 3088 3088 3088 3089 3090 3090 3091 3091 3091 3092 3093 3093 3093 3093 3092 3092 3091 3090
3083 3083 3083 3083 3083 3084 3084 3084 3084 3084 3084 3084 3084 3085 3085 3085 3085 3085 3086 3086 3086 3085 3085 3085 3085 3085 3086 3086 3086 3086 3086 3086 3085 3085 3085 3085 3084 3084 3084 3083 3083 3083 3082 3082 3082 3081 3081 3080 3080 3080 3081 3081 3081 3082 3083 3083 3083 3083 3082 3082 3082 3082 3082 3083 3083 3083 3084 3084 3083 3082 3083 3085 3086 3086 3086 3087 3087 3088 3089 3089 3088 3088 3088 3087 3086
3079 3079 3079 3079 3079 3079 3079 3079 3079 3079 3079 3079 3080 3080 3080 3080 3080 3080 3080 3080 3080 3080 3080 3080 3079 3079 3079 3079 3079 3080 3080 3079 3079 3079 3078 3078 3078 3077 3077 3076 3076 3075 3075 3074 3074 3074 3073 3073 3073 3073 3073 3074 3075 3075 3075 3075 3076 3076 3076 3075 3075 3076 3076 3077 3078 3079 3080 3079 3078 3078 3080 3081 3081 3082 3082 3083 3083 3084 3085 3085 3085 3084 3084 3083 3082
3075 3075 3075 3075 3075 3075 3075 3075 3075 3075 3075 3075 3074 3075 3075 3075 3075 3075 3074 3074 3074 3074 3074 3074 3073 3073 3073 3073 3072 3072 3072 3072 3072 3071 3071 3070 3070 3069 3069 3069 3068 3068 3067 3066 3066 3066 3066 3066 3066 3066 3066 3067 3067 3068 3068 3069 3069 3069 3069 3068 3068 3069 3070 3070 3072 3074 3074 3074 3074 3075 3076 3076 3077 3078 3079 3079 3080 3080 3081 3081 3081 3080 3079 3079 3078
3070 3070 3070 3070 3070 3070 3070 3070 3070 3070 3070 3070 3069 3069 3069 3069 3069 3069 3069 3068 3068 3068 3068 3068 3067 3067 3067 3067 3066 3065 3065 3065 3065 3065 3064 3064 3063 3063 3062 3061 3061 3061 3060 3060 3059 3059 3059 3059 3059 3059 3060 3061 3061 3061 3062 3063 3063 3063 3063 3063 3062 3064 3065 3065 3067 3068 3069 3070 3070 3070 3071 3072 3073 3074 3075 3075 3076 3076 3077 3077 3077 3076 3076 3075 3074
3067 3066 3066 3066 3066 3066 3066 3065 3065 3065 3065 3065 3065 3065 3064 3064 3064 3064 3064 3064 3064 3063 3063 3063 3063 3062 3062 3062 3062 3061 3060 3059 3059 3059 3059 3059 3058 3057 3057 3056 3055 3054 3054 3054 3053 3053 3053 3053 3053 3054 3054 3055 3055 3056 3057 3057 3058 3058 3059 3059 3059 3060 3061 3062 3063 3064 3065 3065 3066 3067 3067 3068 3070 3070 3071 3072 3072 3072 3073 3073 3073 3073 3072 3071 3070
3064 3063 3063 3063 3063 3062 3062 3062 3062 3062 3062 3062 3062 3062 3061 3061 3061 3060 3060 3060 3060 3060 3060 3060 3060 3059 3059 3058 3058 3058 3057 3057 3056 3055 3055 3054 3053 3053 3052 3051 3050 3049 3048 3048 3048 3047 3047 3047 3047 3048 3048 3049 3050 3051 3052 3053 3053 3054 3055 3055 3056 3057 3058 3059 3060 3060 3061 3061 3062 3063 3064 3065 3066 3067 3068 3068 3069 3069 3069 3069 3069 3069 3068 3068 3067
3061 3061 3061 3060 3060 3060 3060 3060 3060 3060 3060 3059 3059 3059 3059 3059 3059 3059 3058 3058 3058 3058 3058 3058 3057 3057 3056 3056 3055 3055 3054 3053 3053 3052 3051 3050 3049 3048 3047 3046 3045 3044 3043 3042 3042 3041 3041 3041 3041 3042 3043 3043 3044 3046 3047 3047 3048 3049 3050 3051 3052 3053 3054 3055 3056 3057 3057 3058 3058 3059 3061 3062 3063 3064 3064 3065 3065 3065 3066 3066 3066 3066 3065 3064 3064
3060 3059 3059 3059 3058 3058 3058 3058 3058 3058 3058 3058 3058 3058 3058 3057 3057 3057 3057 3057 3056 3056 3056 3055 3055 3054 3054 3053 3052 3052 3051 3050 3049 3048 3047 3046 3045 3044 3042 3040 3039 3038 3038 3037 3037 3036 3036 3036 3037 3037 3038 3039 3040 3041 3042 3043 3044 3045 3046 3046 3048 3049 3050 3051 3052 3053 3054 3054 3055 3056 3058 3059 3059 3060 3060 3061 3061 3062 3063 3063 3063 3062 3062 3061 3061
3058 3058 3057 3057 3056 3056 3056 3056 3056 3056 3056 3056 3056 3056 3056 3056 3056 3056 3056 3055 3055 3055 3054 3053 3052 3052 3051 3050 3049 3048 3048 3047 3046 3045 3044 3042 3041 3040 3038 3036 3034 3033 3033 3032 3032 3032 3032 3032 3032 3033 3034 3034 3035 3036 3037 3039 3040 3041 3042 3043 3044 3045 3047 3048 3049 3049 3050 3051 3052 3053 3054 3054 3055 3056 3056 3057 3058 3059 3059 3060 3059 3059 3059 3058 3058
3057 3056 3056 3055 3055 3054 3054 3054 3054 3054 3054 3055 3055 3055 3055 3055 3055 3055 3054 3054 3053 3053 3052 3051 3050 3050 3049 3048 3047 3046 3045 3044 3043 3042 3041 3039 3038 3036 3035 3033 3032 3031 3030 3030 3030 3030 3030 3030 3029 3029 3030 3030 3031 3033 3034 3035 3036 3038 3039 3040 3041 3042 3044 3045 3046 3047 3047 3048 3049 3050 3050 3051 3051 3052 3053 3054 3055 3056 3056 3056 3056 3056 3056 3056 3054
3056 3055 3054 3054 3054 3053 3053 3053 3053 3053 3053 3053 3053 3053 3054 3054 3054 3054 3053 3053 3052 3051 3050 3049 3049 3048 3047 3046 3045 3044 3043 3042 3041 3040 3039 3037 3036 3035 3033 3032 3031 3030 3029 3029 3029 3028 3028 3028 3027 3027 3027 3028 3028 3029 3031 3032 3033 3034 3036 3038 3039 3040 3041 3042 3043 3044 3045 3045 3046 3047 3048 3048 3048 3049 3049 3050 3051 3052 3052 3052 3053 3053 3053 3052 3051
3055 3054 3053 3053 3053 3052 3052 3052 3052 3052 3052 3052 3052 3052 3052 3053 3053 3053 3052 3052 3051 3050 3049 3048 3047 3047 3046 3045 3045 3044 3042 3041 3040 3039 3038 3037 3036 3034 3033 3032 3031 3030 3029 3029 3028 3028 3027 3027 3026 3026 3026 3026 3027 3027 3028 3030 3031 3032 3034 3035 3036 3037 3038 3039 3040 3041 3042 3043 3044 3044 3045 3045 3046 3046 3047 3047 3048 3048 3049 3049 3050 3050 3049 3048 3047
3054 3053 3053 3052 3052 3051 3051 3051 3051 3051 3051 3051 3051 3051 3052 3052 3052 3052 3051 3051 3050 3049 3049 3048 3047 3046 3046 3045 3044 3043 3042 3041 3040 3039 3038 3037 3036 3034 3033 3032 3031 3030 3029 3028 3028 3027 3026 3026 3025 3025 3025 3025 3025 3026 3026 3027 3029 3030 3032 3033 3033 3034 3036 3037 3037 3038 3039 3040 3041 3042 3042 3043 3043 3044 3044 3044 3045 3045 3046 3047 3047 3047 3046 3044 3043
3053 3053 3052 3052 3051 3051 3050 3050 3050 3050 3050 3050 3050 3051 3051 3051 3051 3051 3051 3050 3050 3049 3048 3048 3047 3047 3046 3045 3044 3043 3042 3041 3041 3040 3038 3037 3036 3034 3033 3032 3031 3030 3029 3028 3027 3026 3026 3025 3025 3024 3024 3024 3024 3024 3025 3026 3027 3028 3030 3031 3031 3032 3033 3034 3035 3036 3036 3037 3038 3039 3040 3041 3041 3042 3042 3042 3042 3042 3043 3043 3044 3043 3042 3041 3041
3053 3053 3052 3052 3051 3050 3050 3050 3050 3050 3050 3050 3050 3050 3050 3051 3051 3051 3050 3050 3049 3049 3048 3048 3047 3047 3046 3045 3044 3044 3043 3042 3040 3039 3038 3037 3036 3035 3034 3033 3031 3030 3029 3028 3027 3026 3026 3025 3024 3023 3023 3023 3023 3023 3023 3024 3025 3026 3027 3028 3029 3030 3031 3032 3032 3033 3033 3034 3035 3036 3037 3038 3038 3039 3039 3039 3039 3039 3040 3040 3040 3040 3040 3039 3039
3054 3053 3053 3052 3051 3051 3050 3050 3050 3050 3050 3050 3050 3050 3050 3050 3050 3050 3050 3050 3049 3049 3048 3048 3047 3047 3046 3045 3045 3044 3043 3042 3040 3039 3038 3037 3036 3034 3034 3033 3032 3031 3030 3029 3028 3027 3026 3026 3025 3025 3024 3024 3023 3023 3023 3023 3023 3024 3025 3026 3028 3029 3030 3030 3030 3031 3031 3032 3033 3033 3034 3035 3035 3036 3036 3037 3037 3037 3037 3037 3037 3037 3037 3037 3036
3054 3054 3054 3053 3052 3051 3051 3051 3050 3050 3050 3050 3050 3050 3050 3050 3050 3050 3050 3050 3049 3049 3049 3048 3047 3047 3046 3045 3044 3043 3042 3041 3040 3039 3038 3037 3036 3034 3033 3032 3032 3031 3030 3030 3029 3028 3027 3027 3027 3026 3026 3025 3025 3024 3024 3024 3024 3025 3026 3026 3027 3028 3029 3029 3030 3030 3030 3030 3030 3031 3031 3032 3032 3033 3033 3034 3034 3034 3034 3035 3035 3035 3035 3035 3034
3055 3055 3054 3054 3053 3053 3052 3052 3052 3051 3051 3051 3050 3050 3050 3051 3050 3050 3050 3050 3049 3049 3048 3048 3047 3046 3046 3045 3044 3043 3042 3041 3040 3039 3038 3037 3036 3035 3033 3032 3031 3031 3030 3030 3029 3028 3028 3028 3028 3028 3027 3026 3026 3026 3026 3026 3026 3026 3027 3027 3028 3028 3028 3028 3028 3028 3028 3029 3029 3029 3029 3029 3029 3030 3030 3031 3032 3032 3032 3032 3033 3033 3033 3032 3032
3055 3055 3055 3054 3054 3054 3053 3053 3053 3052 3052 3051 3051 3051 3051 3051 3051 3051 3050 3050 3050 3049 3048 3048 3047 3046 3045 3044 3043 3042 3042 3041 3040 3039 3038 3037 3035 3035 3034 3032 3032 3031 3030 3030 3030 3029 3029 3029 3029 3029 3028 3028 3028 3027 3027 3027 3027 3027 3027 3027 3027 3027 3027 3027 3027 3027 3027 3027 3027 3027 3027 3027 3028 3028 3029 3029 3029 3029 3030 3030 3031 3030 3030 3030 3030
3055 3055 3055 3055 3055 3054 3054 3054 3054 3053 3053 3052 3052 3052 3051 3051 3051 3051 3051 3050 3050 3049 3049 3048 3047 3047 3046 3045 3044 3043 3042 3041 3040 3039 3038 3037 3036 3035 3034 3033 3032 3032 3031 3031 3030 3030 3030 3030 3029 3029 3029 3028 3028 3028 3027 3027 3027 3027 3027 3026 3026 3026 3026 3026 3026 3026 3026 3026 3026 3026 3026 3026 3027 3027 3027 3027 3027 3028 3028 3028 3028 3028 3028 3029 3029
3054 3054 3054 3054 3055 3054 3054 3054 3053 3053 3053 3053 3052 3052 3052 3052 3051 3051 3051 3051 3050 3050 3049 3049 3048 3047 3046 3045 3044 3043 3042 3041 3040 3039 3038 3037 3036 3035 3034 3033 3033 3032 3032 3031 3031 3030 3030 3029 3029 3028 3028 3027 3027 3027 3026 3026 3025 3025 3025 3025 3025 3025 3025 3025 3025 3025 3025 3025 3025 3025 3025 3025 3025 3025 3025 3026 3026 3026 3026 3026 3026 3027 3027 3027 3027
3053 3053 3054 3054 3054 3054 3053 3053 3053 3053 3053 3053 3052 3052 3052 3052 3051 3051 3051 3051 3051 3050 3050 3049 3048 3047 3046 3046 3045 3044 3043 3042 3041 3040 3039 3038 3037 3036 3034 3033 3032 3032 3031 3031 3030 3029 3029 3028 3028 3027 3027 3026 3026 3025 3025 3024 3023 3023 3023 3023 3023 3023 3023 3023 3023 3023 3023 3023 3023 3023 3023 3023 3023 3024 3024 3025 3025 3025 3025 3025 3025 3025 3026 3026 3025
3051 3052 3052 3053 3053 3053 3053 3053 3053 3053 3053 3053 3052 3052 3052 3052 3051 3051 3051 3051 3051 3051 3050 3049 3049 3048 3047 3046 3045 3044 3043 3042 3041 3040 3039 3038 3036 3035 3034 3033 3032 3031 3030 3029 3028 3028 3027 3027 3027 3026 3026 3025 3025 3024 3023 3023 3022 3021 3021 3021 3021 3022 3022 3022 3022 3022 3022 3022 3022 3022 3022 3022 3022 3023 3023 3024 3024 3024 3024 3024 3024 3024 3024 3024 3024
3050 3050 3051 3051 3052 3052 3052 3052 3052 3052 3052 3052 3052 3052 3052 3052 3052 3052 3052 3051 3051 3051 3050 3049 3049 3048 3047 3046 3045 3044 3043 3042 3040 3039 3038 3037 3036 3035 3034 3033 3031 3031 3030 3029 3028 3027 3027 3026 3026 3026 3025 3024 3024 3023 3023 3022 3022 3021 3021 3020 3020 3021 3021 3021 3021 3021 3021 3021 3021 3021 3021 3021 3022 3022 3023 3023 3023 3023 3023 3023 3023 3023 3023 3023 3022